Location: Unspecified
(0.0000°N, 0.0000°E)
Time: 18:02:58
(UTC+00:00)

STARLINK 1040 - Pass Details

Date: 17 January 2020
Orbit: 337 x 343 km, 53.0° (Epoch: 23 January)

Event Time Altitude Azimuth Distance (km) Brightness Sun altitude
Rises 04:47:53 0° 192° (SSW) 2,120 6.8 -19.1°
Reaches altitude 10° 04:50:15 10° 172° (S) 1,278 5.9 -18.5°
Maximum altitude 04:52:20 18° 125° (SE) 905 5.7 -18.1°
Drops below altitude 10° 04:54:24 10° 77° (ENE) 1,270 6.3 -17.6°
Sets 04:56:45 0° 57° (ENE) 2,103 7.1 -17.0°
